• In Netherlands
  • List of Countries
  • For 7 days
  • Water Temperature
  • Satellite Maps
  • Weather Map
  • Weather Widgets
  • user-avatar
    Login

    Hourly Weather La Massana

    Today, 28 June, Wednesday

    Time Temperature Precipitation Wind Pressure Humidity
    00:00 +8°C° 0 mm 1 mps 606 mmHg 88%
    01:00 +8°C° 0 mm 1 mps 606 mmHg 89%
    02:00 +7°C° 0 mm 1 mps 606 mmHg 89%
    03:00 +7°C° 0 mm 1 mps 605 mmHg 90%
    04:00 +7°C° 0 mm 1 mps 605 mmHg 88%
    05:00 +8°C° 0 mm 1 mps 606 mmHg 86%
    06:00 +9°C° 0 mm 1 mps 606 mmHg 81%
    07:00 +9°C° 0.1 mm 2 mps 606 mmHg 75%
    08:00 +10°C° 0.1 mm 2 mps 607 mmHg 70%
    09:00 +12°C° 0.1 mm 3 mps 607 mmHg 64%
    10:00 +12°C° 0.6 mm 3 mps 607 mmHg 63%
    11:00 +12°C° 0.6 mm 3 mps 607 mmHg 62%
    12:00 +13°C° 0.6 mm 3 mps 607 mmHg 61%
    13:00 +13°C° 1.2 mm 3 mps 607 mmHg 62%
    14:00 +13°C° 1.2 mm 3 mps 607 mmHg 62%
    15:00 +13°C° 1.2 mm 4 mps 606 mmHg 63%
    16:00 +12°C° 1 mm 3 mps 606 mmHg 64%
    17:00 +11°C° 1 mm 3 mps 606 mmHg 66%
    18:00 +11°C° 1 mm 3 mps 606 mmHg 68%
    19:00 +9°C° 0.6 mm 2 mps 605 mmHg 74%
    20:00 +7°C° 0.6 mm 2 mps 605 mmHg 80%
    21:00 +6°C° 0.6 mm 1 mps 604 mmHg 86%
    22:00 +5°C° 0.2 mm 2 mps 604 mmHg 87%
    23:00 +5°C° 0.2 mm 2 mps 604 mmHg 87%

    Tomorrow, 29 June, Thursday

    Time Temperature Precipitation Wind Pressure Humidity
    00:00 +5°C° 0.2 mm 2 mps 604 mmHg 88%
    01:00 +4°C° 0.1 mm 2 mps 604 mmHg 88%
    02:00 +4°C° 0.1 mm 2 mps 604 mmHg 89%
    03:00 +4°C° 0.1 mm 2 mps 604 mmHg 90%
    04:00 +4°C° 0 mm 2 mps 605 mmHg 87%
    05:00 +6°C° 0 mm 1 mps 605 mmHg 85%
    06:00 +7°C° 0 mm 1 mps 606 mmHg 83%
    07:00 +7°C° 0.1 mm 2 mps 606 mmHg 76%
    08:00 +8°C° 0.1 mm 2 mps 607 mmHg 70%
    09:00 +9°C° 0.1 mm 3 mps 608 mmHg 63%
    10:00 +10°C° 0.2 mm 3 mps 608 mmHg 60%
    11:00 +10°C° 0.2 mm 3 mps 608 mmHg 56%
    12:00 +11°C° 0.2 mm 4 mps 608 mmHg 53%
    13:00 +11°C° 0.5 mm 4 mps 608 mmHg 53%
    14:00 +11°C° 0.5 mm 4 mps 608 mmHg 53%
    15:00 +11°C° 0.5 mm 4 mps 608 mmHg 53%
    16:00 +10°C° 0.6 mm 4 mps 608 mmHg 57%
    17:00 +9°C° 0.6 mm 3 mps 608 mmHg 61%
    18:00 +8°C° 0.6 mm 2 mps 607 mmHg 65%
    19:00 +7°C° 0.3 mm 2 mps 607 mmHg 72%
    20:00 +6°C° 0.3 mm 1 mps 607 mmHg 79%
    21:00 +4°C° 0.3 mm 1 mps 606 mmHg 85%
    22:00 +3°C° 0.1 mm 1 mps 606 mmHg 86%
    23:00 +3°C° 0.1 mm 1 mps 606 mmHg 87%

    Day after tomorrow, 30 June, Friday

    Time Temperature Precipitation Wind Pressure Humidity
    00:00 +2°C° 0.1 mm 1 mps 606 mmHg 88%
    01:00 +2°C° 0 mm 1 mps 606 mmHg 89%
    02:00 +1°C° 0 mm 1 mps 605 mmHg 90%
    03:00 0°C° 0 mm 1 mps 605 mmHg 90%
    04:00 +2°C° 0 mm 1 mps 606 mmHg 86%
    05:00 +4°C° 0 mm 1 mps 607 mmHg 81%
    06:00 +6°C° 0 mm 1 mps 608 mmHg 76%
    07:00 +8°C° 0 mm 1 mps 609 mmHg 66%
    08:00 +8°C° 0 mm 2 mps 610 mmHg 55%
    09:00 +10°C° 0 mm 2 mps 611 mmHg 44%
    10:00 +12°C° 0.2 mm 2 mps 611 mmHg 46%
    11:00 +11°C° 0.2 mm 3 mps 612 mmHg 48%
    12:00 +12°C° 0.2 mm 3 mps 612 mmHg 49%
    13:00 +11°C° 0.7 mm 3 mps 612 mmHg 55%
    14:00 +10°C° 0.7 mm 3 mps 611 mmHg 61%
    15:00 +10°C° 0.7 mm 3 mps 611 mmHg 67%
    16:00 +9°C° 0.5 mm 3 mps 611 mmHg 70%
    17:00 +9°C° 0.5 mm 3 mps 611 mmHg 73%
    18:00 +8°C° 0.5 mm 3 mps 611 mmHg 76%
    19:00 +7°C° 0.1 mm 2 mps 611 mmHg 81%
    20:00 +5°C° 0.1 mm 2 mps 611 mmHg 86%
    21:00 +4°C° 0.1 mm 2 mps 610 mmHg 91%
    22:00 +3°C° 0 mm 2 mps 610 mmHg 91%
    23:00 +3°C° 0 mm 2 mps 610 mmHg 90%

    1 July, Saturday

    Time Temperature Precipitation Wind Pressure Humidity
    00:00 +4°C° 0 mm 1 mps 610 mmHg 90%
    01:00 +3°C° 0 mm 1 mps 610 mmHg 89%
    02:00 +3°C° 0 mm 1 mps 610 mmHg 88%
    03:00 +3°C° 0 mm 1 mps 610 mmHg 88%
    04:00 +4°C° 0 mm 1 mps 610 mmHg 85%
    05:00 +4°C° 0 mm 2 mps 611 mmHg 81%
    06:00 +5°C° 0 mm 2 mps 611 mmHg 78%
    07:00 +5°C° 0.4 mm 2 mps 612 mmHg 78%
    08:00 +6°C° 0.4 mm 2 mps 612 mmHg 78%
    09:00 +7°C° 0.4 mm 2 mps 613 mmHg 78%
    10:00 +8°C° 0.4 mm 2 mps 613 mmHg 77%
    11:00 +8°C° 0.4 mm 2 mps 614 mmHg 75%
    12:00 +9°C° 0.4 mm 3 mps 614 mmHg 74%
    13:00 +10°C° 0.2 mm 3 mps 614 mmHg 72%
    14:00 +10°C° 0.2 mm 3 mps 615 mmHg 70%
    15:00 +10°C° 0.2 mm 3 mps 615 mmHg 68%
    16:00 +10°C° 0.2 mm 3 mps 615 mmHg 70%
    17:00 +9°C° 0.2 mm 3 mps 615 mmHg 72%
    18:00 +9°C° 0.2 mm 3 mps 615 mmHg 74%
    19:00 +8°C° 0.2 mm 3 mps 615 mmHg 78%
    20:00 +7°C° 0.2 mm 3 mps 615 mmHg 82%
    21:00 +5°C° 0.2 mm 3 mps 615 mmHg 86%
    22:00 +4°C° 0.1 mm 3 mps 615 mmHg 87%
    23:00 +4°C° 0.1 mm 3 mps 615 mmHg 89%

    2 July, Sunday

    Time Temperature Precipitation Wind Pressure Humidity
    00:00 +4°C° 0.1 mm 3 mps 615 mmHg 90%
    01:00 +3°C° 0 mm 3 mps 615 mmHg 89%
    02:00 +3°C° 0 mm 3 mps 614 mmHg 89%
    03:00 +3°C° 0 mm 3 mps 614 mmHg 89%
    04:00 +4°C° 0 mm 3 mps 615 mmHg 86%
    05:00 +4°C° 0 mm 3 mps 615 mmHg 83%
    06:00 +5°C° 0 mm 3 mps 616 mmHg 80%
    07:00 +8°C° 0 mm 3 mps 617 mmHg 69%
    08:00 +10°C° 0 mm 3 mps 618 mmHg 59%
    09:00 +12°C° 0 mm 3 mps 619 mmHg 48%
    10:00 +14°C° 0 mm 3 mps 619 mmHg 45%
    11:00 +16°C° 0 mm 3 mps 619 mmHg 41%
    12:00 +17°C° 0 mm 3 mps 620 mmHg 37%
    13:00 +18°C° 0 mm 3 mps 620 mmHg 39%
    14:00 +18°C° 0 mm 3 mps 619 mmHg 41%
    15:00 +18°C° 0 mm 3 mps 619 mmHg 43%
    16:00 +17°C° 0 mm 3 mps 619 mmHg 50%
    17:00 +16°C° 0 mm 3 mps 618 mmHg 56%
    18:00 +14°C° 0 mm 3 mps 618 mmHg 63%
    19:00 +12°C° 0 mm 3 mps 617 mmHg 72%
    20:00 +9°C° 0 mm 2 mps 617 mmHg 81%
    21:00 +7°C° 0 mm 2 mps 616 mmHg 90%
    22:00 +7°C° 0 mm 2 mps 616 mmHg 90%
    23:00 +6°C° 0 mm 2 mps 616 mmHg 90%

    3 July, Monday

    Time Temperature Precipitation Wind Pressure Humidity
    00:00 +6°C° 0 mm 2 mps 615 mmHg 89%
    01:00 +6°C° 0 mm 2 mps 615 mmHg 89%
    02:00 +6°C° 0 mm 2 mps 615 mmHg 89%
    03:00 +6°C° 0 mm 2 mps 615 mmHg 89%
    04:00 +7°C° 0 mm 2 mps 615 mmHg 86%
    05:00 +8°C° 0 mm 2 mps 616 mmHg 82%
    06:00 +9°C° 0 mm 2 mps 616 mmHg 79%
    07:00 +12°C° 0 mm 2 mps 617 mmHg 69%
    08:00 +14°C° 0 mm 2 mps 618 mmHg 59%
    09:00 +17°C° 0 mm 2 mps 619 mmHg 49%
    10:00 +18°C° 0 mm 2 mps 619 mmHg 46%
    11:00 +19°C° 0 mm 2 mps 619 mmHg 43%
    12:00 +21°C° 0 mm 2 mps 620 mmHg 40%
    13:00 +21°C° 0 mm 2 mps 619 mmHg 40%
    14:00 +21°C° 0 mm 2 mps 619 mmHg 41%
    15:00 +21°C° 0 mm 2 mps 619 mmHg 42%
    16:00 +20°C° 0 mm 2 mps 618 mmHg 47%
    17:00 +20°C° 0 mm 1 mps 618 mmHg 53%
    18:00 +19°C° 0 mm 1 mps 617 mmHg 59%
    19:00 +15°C° 0 mm 1 mps 616 mmHg 68%
    20:00 +12°C° 0 mm 1 mps 615 mmHg 78%
    21:00 +9°C° 0 mm 1 mps 614 mmHg 88%
    22:00 +9°C° 0 mm 1 mps 614 mmHg 89%
    23:00 +7°C° 0 mm 0 mps 613 mmHg 90%
    Show more